Time,TemperatureF,DewpointF,PressureIn,WindDirection,WindDirectionDegrees,WindSpeedMPH,WindSpeedGustMPH,Humidity,HourlyPrecipIn,Conditions,Clouds,dailyrainin,SoftwareType,DateUTC
2013-08-19 00:00:00,62.9,61.8,30.12,South,188,0.0,0.0,96,0.00,,---,0.00,VWS V14.00,2013-08-19 04:00:00,
2013-08-19 00:01:00,62.8,61.7,30.12,South,188,0.0,0.0,96,0.00,,---,0.00,VWS V14.00,2013-08-19 04:01:00,
2013-08-19 00:06:00,62.7,61.5,30.12,South,188,0.0,0.0,96,0.00,,---,0.00,VWS V14.00,2013-08-19 04:06:00,
2013-08-19 00:11:00,62.7,61.8,30.12,South,188,0.0,0.0,97,0.00,,---,0.00,VWS V14.00,2013-08-19 04:11:00,
2013-08-19 00:16:00,62.8,61.9,30.12,South,188,0.0,0.0,97,0.00,,---,0.00,VWS V14.00,2013-08-19 04:16:00,
2013-08-19 00:21:00,62.7,61.8,30.12,South,188,0.0,0.0,97,0.00,,---,0.00,VWS V14.00,2013-08-19 04:21:00,
2013-08-19 00:26:00,62.7,61.8,30.12,South,188,0.0,0.0,97,0.00,,---,0.00,VWS V14.00,2013-08-19 04:26:00,
2013-08-19 00:31:00,62.6,61.7,30.12,South,188,0.0,0.0,97,0.00,,---,0.00,VWS V14.00,2013-08-19 04:31:00,
2013-08-19 00:36:00,62.6,61.7,30.12,South,188,0.0,0.0,97,0.00,,---,0.00,VWS V14.00,2013-08-19 04:36:00,
2013-08-19 00:41:00,62.6,61.7,30.11,South,188,0.0,0.0,97,0.00,,---,0.00,VWS V14.00,2013-08-19 04:41:00,
2013-08-19 00:46:00,62.7,61.8,30.12,South,188,0.0,0.0,97,0.00,,---,0.00,VWS V14.00,2013-08-19 04:46:00,
2013-08-19 00:51:00,62.8,61.9,30.11,South,188,0.0,0.0,97,0.00,,---,0.00,VWS V14.00,2013-08-19 04:51:00,
2013-08-19 00:56:00,62.9,62.0,30.11,South,188,0.0,0.0,97,0.00,,---,0.00,VWS V14.00,2013-08-19 04:56:00,
2013-08-19 01:01:00,62.9,62.0,30.11,South,188,0.0,0.0,97,0.00,,---,0.00,VWS V14.00,2013-08-19 05:01:00,
2013-08-19 01:06:00,62.9,62.0,30.11,South,188,0.0,0.0,97,0.00,,---,0.00,VWS V14.00,2013-08-19 05:06:00,
2013-08-19 01:11:00,62.8,61.9,30.11,South,188,0.0,2.0,97,0.00,,---,0.00,VWS V14.00,2013-08-19 05:11:00,
2013-08-19 01:16:00,62.7,61.8,30.11,South,188,0.0,2.0,97,0.00,,---,0.00,VWS V14.00,2013-08-19 05:16:00,
2013-08-19 01:21:00,62.5,61.6,30.11,South,188,0.0,2.0,97,0.00,,---,0.00,VWS V14.00,2013-08-19 05:21:00,
2013-08-19 01:26:00,62.3,61.4,30.11,South,188,0.0,2.0,97,0.00,,---,0.00,VWS V14.00,2013-08-19 05:26:00,
2013-08-19 01:31:00,62.3,61.4,30.11,South,188,0.0,2.0,97,0.00,,---,0.00,VWS V14.00,2013-08-19 05:31:00,
2013-08-19 01:36:00,62.2,61.3,30.10,South,188,0.0,0.0,97,0.00,,---,0.00,VWS V14.00,2013-08-19 05:36:00,
2013-08-19 01:41:00,62.2,61.3,30.10,South,188,0.0,0.0,97,0.00,,---,0.00,VWS V14.00,2013-08-19 05:41:00,
2013-08-19 01:46:00,62.1,61.2,30.10,South,188,0.0,0.0,97,0.00,,---,0.00,VWS V14.00,2013-08-19 05:46:00,
2013-08-19 01:51:00,62.1,61.2,30.10,South,188,0.0,0.0,97,0.00,,---,0.00,VWS V14.00,2013-08-19 05:51:00,
2013-08-19 01:56:00,62.1,61.5,30.10,South,188,0.0,0.0,98,0.00,,---,0.00,VWS V14.00,2013-08-19 05:56:00,
2013-08-19 02:01:00,62.1,61.5,30.09,South,188,0.0,0.0,98,0.00,,---,0.00,VWS V14.00,2013-08-19 06:01:00,
2013-08-19 02:06:00,62.0,61.1,30.09,South,188,0.0,0.0,97,0.00,,---,0.00,VWS V14.00,2013-08-19 06:06:00,
2013-08-19 02:11:00,62.0,61.1,30.10,South,188,0.0,0.0,97,0.00,,---,0.00,VWS V14.00,2013-08-19 06:11:00,
2013-08-19 02:16:00,62.1,61.5,30.10,South,188,0.0,0.0,98,0.00,,---,0.00,VWS V14.00,2013-08-19 06:16:00,
2013-08-19 02:21:00,62.2,61.6,30.09,South,188,0.0,0.0,98,0.00,,---,0.00,VWS V14.00,2013-08-19 06:21:00,
2013-08-19 02:26:00,62.3,61.7,30.09,South,188,0.0,0.0,98,0.00,,---,0.00,VWS V14.00,2013-08-19 06:26:00,
2013-08-19 02:31:00,62.5,61.9,30.09,South,188,0.0,0.0,98,0.00,,---,0.00,VWS V14.00,2013-08-19 06:31:00,
2013-08-19 02:36:00,62.4,61.8,30.09,South,188,0.0,0.0,98,0.00,,---,0.00,VWS V14.00,2013-08-19 06:36:00,
2013-08-19 02:41:00,62.3,61.7,30.09,South,188,0.0,0.0,98,0.00,,---,0.00,VWS V14.00,2013-08-19 06:41:00,
2013-08-19 02:46:00,62.3,61.7,30.09,South,188,0.0,0.0,98,0.00,,---,0.00,VWS V14.00,2013-08-19 06:46:00,
2013-08-19 02:51:00,62.2,61.6,30.09,South,188,0.0,1.0,98,0.00,,---,0.00,VWS V14.00,2013-08-19 06:51:00,
2013-08-19 02:56:00,62.1,61.5,30.09,South,188,0.0,1.0,98,0.00,,---,0.00,VWS V14.00,2013-08-19 06:56:00,
2013-08-19 03:01:00,62.0,61.4,30.09,South,188,0.0,2.0,98,0.00,,---,0.00,VWS V14.00,2013-08-19 07:01:00,
2013-08-19 03:06:00,61.9,61.3,30.09,South,188,0.0,3.0,98,0.00,,---,0.00,VWS V14.00,2013-08-19 07:06:00,
2013-08-19 03:11:00,62.0,61.4,30.08,South,188,0.0,3.0,98,0.00,,---,0.00,VWS V14.00,2013-08-19 07:11:00,
2013-08-19 03:16:00,62.0,61.4,30.08,South,188,0.0,3.0,98,0.00,,---,0.00,VWS V14.00,2013-08-19 07:16:00,
2013-08-19 03:21:00,62.2,61.6,30.08,South,188,0.0,3.0,98,0.00,,---,0.00,VWS V14.00,2013-08-19 07:21:00,
2013-08-19 03:26:00,62.1,61.5,30.08,South,188,0.0,3.0,98,0.00,,---,0.00,VWS V14.00,2013-08-19 07:26:00,
2013-08-19 03:31:00,61.9,61.3,30.08,South,188,0.0,3.0,98,0.00,,---,0.00,VWS V14.00,2013-08-19 07:31:00,
2013-08-19 03:36:00,61.7,61.1,30.08,South,188,1.0,2.0,98,0.00,,---,0.00,VWS V14.00,2013-08-19 07:36:00,
2013-08-19 03:41:00,61.7,61.1,30.08,South,188,0.0,2.0,98,0.00,,---,0.00,VWS V14.00,2013-08-19 07:41:00,
2013-08-19 03:46:00,61.6,61.0,30.08,South,188,0.0,3.0,98,0.00,,---,0.00,VWS V14.00,2013-08-19 07:46:00,
2013-08-19 03:51:00,61.6,61.0,30.08,South,188,1.0,3.0,98,0.00,,---,0.00,VWS V14.00,2013-08-19 07:51:00,
2013-08-19 03:56:00,61.6,61.0,30.08,South,188,2.0,3.0,98,0.00,,---,0.00,VWS V14.00,2013-08-19 07:56:00,
2013-08-19 04:01:00,61.6,61.0,30.08,South,188,0.0,3.0,98,0.00,,---,0.00,VWS V14.00,2013-08-19 08:01:00,
2013-08-19 04:06:00,61.5,60.9,30.08,South,188,0.0,2.0,98,0.00,,---,0.00,VWS V14.00,2013-08-19 08:06:00,
2013-08-19 04:11:00,61.4,60.8,30.09,South,188,0.0,2.0,98,0.00,,---,0.00,VWS V14.00,2013-08-19 08:11:00,
2013-08-19 04:16:00,61.2,60.6,30.09,South,188,0.0,2.0,98,0.00,,---,0.00,VWS V14.00,2013-08-19 08:16:00,
2013-08-19 04:21:00,61.1,60.5,30.09,South,188,0.0,2.0,98,0.00,,---,0.00,VWS V14.00,2013-08-19 08:21:00,
2013-08-19 04:26:00,61.0,60.4,30.09,South,188,0.0,2.0,98,0.00,,---,0.00,VWS V14.00,2013-08-19 08:26:00,
2013-08-19 04:31:00,60.9,60.3,30.09,South,188,0.0,2.0,98,0.00,,---,0.00,VWS V14.00,2013-08-19 08:31:00,
2013-08-19 04:36:00,60.9,60.3,30.08,South,188,0.0,0.0,98,0.00,,---,0.00,VWS V14.00,2013-08-19 08:36:00,
2013-08-19 04:41:00,61.1,60.5,30.08,South,188,0.0,1.0,98,0.00,,---,0.00,VWS V14.00,2013-08-19 08:41:00,
2013-08-19 04:46:00,61.1,60.5,30.08,South,188,0.0,1.0,98,0.00,,---,0.00,VWS V14.00,2013-08-19 08:46:00,
2013-08-19 04:51:00,61.3,60.7,30.09,South,188,0.0,1.0,98,0.00,,---,0.00,VWS V14.00,2013-08-19 08:51:00,
2013-08-19 04:56:00,61.4,60.8,30.09,South,188,0.0,3.0,98,0.00,,---,0.00,VWS V14.00,2013-08-19 08:56:00,
2013-08-19 05:01:00,61.4,60.8,30.09,South,188,0.0,3.0,98,0.00,,---,0.00,VWS V14.00,2013-08-19 09:01:00,
2013-08-19 05:06:00,61.4,60.8,30.09,South,188,0.0,0.0,98,0.00,,---,0.00,VWS V14.00,2013-08-19 09:06:00,
2013-08-19 05:11:00,61.5,60.9,30.09,South,188,0.0,0.0,98,0.00,,---,0.00,VWS V14.00,2013-08-19 09:11:00,
2013-08-19 05:16:00,61.6,61.3,30.09,South,188,0.0,0.0,99,0.00,,---,0.00,VWS V14.00,2013-08-19 09:16:00,
2013-08-19 05:21:00,61.7,61.4,30.10,South,188,0.0,0.0,99,0.00,,---,0.00,VWS V14.00,2013-08-19 09:21:00,
2013-08-19 05:26:00,61.9,61.6,30.10,South,188,0.0,2.0,99,0.00,,---,0.00,VWS V14.00,2013-08-19 09:26:00,
2013-08-19 05:31:00,62.0,61.4,30.10,South,188,0.0,2.0,98,0.00,,---,0.00,VWS V14.00,2013-08-19 09:31:00,
2013-08-19 05:36:00,62.2,61.6,30.10,South,188,0.0,1.0,98,0.00,,---,0.00,VWS V14.00,2013-08-19 09:36:00,
2013-08-19 05:41:00,62.3,62.0,30.10,South,188,0.0,1.0,99,0.00,,---,0.00,VWS V14.00,2013-08-19 09:41:00,
2013-08-19 05:46:00,62.4,62.1,30.10,South,188,0.0,4.0,99,0.00,,---,0.00,VWS V14.00,2013-08-19 09:46:00,
2013-08-19 05:51:00,62.5,62.2,30.10,South,188,0.0,4.0,99,0.00,,---,0.00,VWS V14.00,2013-08-19 09:51:00,
2013-08-19 05:56:00,62.6,62.3,30.10,South,188,0.0,4.0,99,0.00,,---,0.00,VWS V14.00,2013-08-19 09:56:00,
2013-08-19 06:01:00,62.6,62.3,30.10,South,188,2.0,4.0,99,0.00,,---,0.00,VWS V14.00,2013-08-19 10:01:00,
2013-08-19 06:06:00,62.7,62.4,30.10,South,188,0.0,3.0,99,0.00,,---,0.00,VWS V14.00,2013-08-19 10:06:00,
2013-08-19 06:11:00,62.7,62.4,30.10,South,188,0.0,3.0,99,0.00,,---,0.00,VWS V14.00,2013-08-19 10:11:00,
2013-08-19 06:16:00,62.6,62.3,30.10,South,188,0.0,3.0,99,0.00,,---,0.00,VWS V14.00,2013-08-19 10:16:00,
2013-08-19 06:21:00,62.6,62.3,30.10,South,188,0.0,3.0,99,0.00,,---,0.00,VWS V14.00,2013-08-19 10:21:00,
2013-08-19 06:26:00,62.6,62.3,30.10,South,188,0.0,3.0,99,0.00,,---,0.00,VWS V14.00,2013-08-19 10:26:00,
2013-08-19 06:31:00,62.7,62.4,30.10,South,188,0.0,3.0,99,0.00,,---,0.00,VWS V14.00,2013-08-19 10:31:00,
2013-08-19 06:36:00,62.7,62.4,30.10,South,188,0.0,0.0,99,0.00,,---,0.00,VWS V14.00,2013-08-19 10:36:00,
2013-08-19 06:41:00,62.7,62.4,30.10,South,188,0.0,0.0,99,0.00,,---,0.00,VWS V14.00,2013-08-19 10:41:00,
2013-08-19 06:46:00,62.8,62.5,30.11,South,188,0.0,1.0,99,0.00,,---,0.00,VWS V14.00,2013-08-19 10:46:00,
2013-08-19 06:51:00,62.8,62.5,30.11,South,188,2.0,2.0,99,0.00,,---,0.00,VWS V14.00,2013-08-19 10:51:00,
2013-08-19 06:56:00,62.8,62.5,30.11,South,188,0.0,3.0,99,0.00,,---,0.00,VWS V14.00,2013-08-19 10:56:00,
2013-08-19 07:01:00,62.8,62.5,30.11,South,188,0.0,3.0,99,0.00,,---,0.00,VWS V14.00,2013-08-19 11:01:00,
2013-08-19 07:06:00,62.8,62.5,30.11,South,188,0.0,1.0,99,0.00,,---,0.00,VWS V14.00,2013-08-19 11:06:00,
2013-08-19 07:11:00,62.8,62.5,30.11,South,188,0.0,1.0,99,0.00,,---,0.00,VWS V14.00,2013-08-19 11:11:00,
2013-08-19 07:16:00,62.8,62.5,30.11,South,188,2.0,4.0,99,0.00,,---,0.00,VWS V14.00,2013-08-19 11:16:00,
2013-08-19 07:21:00,62.8,62.5,30.11,South,188,0.0,4.0,99,0.00,,---,0.00,VWS V14.00,2013-08-19 11:21:00,
2013-08-19 07:26:00,62.8,62.5,30.11,South,188,0.0,4.0,99,0.00,,---,0.00,VWS V14.00,2013-08-19 11:26:00,
2013-08-19 07:31:00,62.9,62.6,30.11,South,188,0.0,4.0,99,0.00,,---,0.00,VWS V14.00,2013-08-19 11:31:00,
2013-08-19 07:36:00,62.9,62.6,30.11,South,188,0.0,3.0,99,0.00,,---,0.00,VWS V14.00,2013-08-19 11:36:00,
2013-08-19 07:41:00,62.9,62.6,30.11,South,188,0.0,3.0,99,0.00,,---,0.00,VWS V14.00,2013-08-19 11:41:00,
2013-08-19 07:46:00,62.9,62.6,30.11,SSW,198,0.0,5.0,99,0.00,,---,0.00,VWS V14.00,2013-08-19 11:46:00,
2013-08-19 07:51:00,62.9,62.6,30.11,SSW,198,0.0,5.0,99,0.00,,---,0.00,VWS V14.00,2013-08-19 11:51:00,
2013-08-19 07:56:00,62.9,62.6,30.11,SSW,198,0.0,5.0,99,0.00,,---,0.00,VWS V14.00,2013-08-19 11:56:00,
2013-08-19 08:01:00,62.9,62.6,30.11,SSW,198,0.0,5.0,99,0.00,,---,0.00,VWS V14.00,2013-08-19 12:01:00,
2013-08-19 08:06:00,62.9,62.6,30.11,SSW,212,3.0,3.0,99,0.00,,---,0.00,VWS V14.00,2013-08-19 12:06:00,
2013-08-19 08:11:00,62.9,62.6,30.11,SW,230,2.0,3.0,99,0.00,,---,0.00,VWS V14.00,2013-08-19 12:11:00,
2013-08-19 08:16:00,63.0,62.7,30.11,SW,230,2.0,3.0,99,0.00,,---,0.00,VWS V14.00,2013-08-19 12:16:00,
2013-08-19 08:20:00,62.9,62.6,30.11,SW,230,2.0,3.0,99,0.00,,---,0.00,VWS V14.00,2013-08-19 12:20:00,
2013-08-19 08:25:00,62.9,62.6,30.11,SW,230,0.0,3.0,99,0.00,,---,0.00,VWS V14.00,2013-08-19 12:25:00,
2013-08-19 08:30:00,62.9,62.6,30.11,SW,230,0.0,3.0,99,0.00,,---,0.00,VWS V14.00,2013-08-19 12:30:00,
2013-08-19 08:35:00,62.9,62.6,30.11,SW,230,0.0,1.0,99,0.00,,---,0.00,VWS V14.00,2013-08-19 12:35:00,
2013-08-19 08:40:00,62.8,62.5,30.11,SW,230,0.0,1.0,99,0.00,,---,0.00,VWS V14.00,2013-08-19 12:40:00,
2013-08-19 08:45:00,62.9,62.6,30.11,SW,230,0.0,2.0,99,0.00,,---,0.00,VWS V14.00,2013-08-19 12:45:00,
2013-08-19 08:50:00,62.9,62.6,30.11,SW,230,0.0,3.0,99,0.00,,---,0.00,VWS V14.00,2013-08-19 12:50:00,
2013-08-19 08:55:00,63.0,62.7,30.11,SW,230,0.0,3.0,99,0.00,,---,0.00,VWS V14.00,2013-08-19 12:55:00,
2013-08-19 09:00:00,63.1,62.8,30.11,SW,230,0.0,4.0,99,0.00,,---,0.00,VWS V14.00,2013-08-19 13:00:00,
2013-08-19 09:05:00,63.2,62.9,30.11,SW,230,0.0,2.0,99,0.00,,---,0.00,VWS V14.00,2013-08-19 13:05:00,
2013-08-19 09:10:00,63.2,62.9,30.11,SW,230,0.0,2.0,99,0.00,,---,0.00,VWS V14.00,2013-08-19 13:10:00,
2013-08-19 09:15:00,63.1,62.8,30.11,SW,230,0.0,2.0,99,0.00,,---,0.00,VWS V14.00,2013-08-19 13:15:00,
2013-08-19 09:20:00,63.1,62.8,30.11,SW,230,0.0,2.0,99,0.00,,---,0.00,VWS V14.00,2013-08-19 13:20:00,
2013-08-19 09:25:00,63.1,62.8,30.11,SW,230,1.0,3.0,99,0.00,,---,0.00,VWS V14.00,2013-08-19 13:25:00,
2013-08-19 09:30:00,63.0,62.7,30.11,SW,230,0.0,3.0,99,0.00,,---,0.00,VWS V14.00,2013-08-19 13:30:00,
2013-08-19 09:35:00,63.0,62.7,30.11,SW,230,1.0,3.0,99,0.00,,---,0.00,VWS V14.00,2013-08-19 13:35:00,
2013-08-19 09:40:00,63.0,62.7,30.11,SW,230,0.0,3.0,99,0.00,,---,0.00,VWS V14.00,2013-08-19 13:40:00,
2013-08-19 09:45:00,63.1,62.8,30.11,SW,230,0.0,3.0,99,0.00,,---,0.00,VWS V14.00,2013-08-19 13:45:00,
2013-08-19 09:50:00,63.2,62.9,30.11,SW,230,0.0,3.0,99,0.00,,---,0.00,VWS V14.00,2013-08-19 13:50:00,
2013-08-19 09:55:00,63.4,63.1,30.11,SW,230,0.0,3.0,99,0.00,,---,0.00,VWS V14.00,2013-08-19 13:55:00,
2013-08-19 10:00:00,63.6,63.3,30.11,SW,230,0.0,3.0,99,0.00,,---,0.00,VWS V14.00,2013-08-19 14:00:00,
2013-08-19 10:05:00,63.4,63.1,30.11,SW,230,2.0,4.0,99,0.00,,---,0.00,VWS V14.00,2013-08-19 14:05:00,
2013-08-19 10:10:00,63.4,63.1,30.11,SW,230,4.0,4.0,99,0.00,,---,0.00,VWS V14.00,2013-08-19 14:10:00,
2013-08-19 10:15:00,63.8,63.5,30.11,SW,230,4.0,5.0,99,0.00,,---,0.00,VWS V14.00,2013-08-19 14:15:00,
2013-08-19 10:20:00,64.0,63.7,30.12,WNW,288,0.0,6.0,99,0.00,,---,0.00,VWS V14.00,2013-08-19 14:20:00,
2013-08-19 10:25:00,64.3,64.0,30.11,WNW,288,0.0,6.0,99,0.00,,---,0.00,VWS V14.00,2013-08-19 14:25:00,
2013-08-19 10:30:00,64.5,64.2,30.11,WNW,288,0.0,6.0,99,0.00,,---,0.00,VWS V14.00,2013-08-19 14:30:00,
2013-08-19 10:35:00,64.7,64.1,30.11,WNW,288,5.0,6.0,98,0.00,,---,0.00,VWS V14.00,2013-08-19 14:35:00,
2013-08-19 10:40:00,64.8,64.2,30.11,WNW,288,5.0,6.0,98,0.00,,---,0.00,VWS V14.00,2013-08-19 14:40:00,
2013-08-19 10:45:00,65.2,64.6,30.11,NW,307,1.0,7.0,98,0.00,,---,0.00,VWS V14.00,2013-08-19 14:45:00,
2013-08-19 10:50:00,65.3,64.4,30.11,NW,307,2.0,7.0,97,0.00,,---,0.00,VWS V14.00,2013-08-19 14:50:00,
2013-08-19 10:55:00,65.5,64.3,30.11,NW,311,2.0,7.0,96,0.00,,---,0.00,VWS V14.00,2013-08-19 14:55:00,
2013-08-19 11:00:00,65.8,64.3,30.11,NW,311,0.0,7.0,95,0.00,,---,0.00,VWS V14.00,2013-08-19 15:00:00,
2013-08-19 11:05:00,66.2,64.4,30.11,NW,311,0.0,4.0,94,0.00,,---,0.00,VWS V14.00,2013-08-19 15:05:00,
2013-08-19 11:10:00,66.8,64.7,30.11,NW,311,5.0,7.0,93,0.00,,---,0.00,VWS V14.00,2013-08-19 15:10:00,
2013-08-19 11:15:00,67.2,64.5,30.11,NW,321,4.0,7.0,91,0.00,,---,0.00,VWS V14.00,2013-08-19 15:15:00,
2013-08-19 11:20:00,67.7,64.7,30.11,NW,321,0.0,7.0,90,0.00,,---,0.00,VWS V14.00,2013-08-19 15:20:00,
2013-08-19 11:25:00,68.3,65.3,30.11,NNW,342,5.0,9.0,90,0.00,,---,0.00,VWS V14.00,2013-08-19 15:25:00,
2013-08-19 11:30:00,68.7,64.7,30.11,NNW,342,0.0,9.0,87,0.00,,---,0.00,VWS V14.00,2013-08-19 15:30:00,
2013-08-19 11:35:00,68.9,64.6,30.11,NNW,342,6.0,6.0,86,0.00,,---,0.00,VWS V14.00,2013-08-19 15:35:00,
2013-08-19 11:40:00,68.9,64.2,30.10,NNW,338,4.0,8.0,85,0.00,,---,0.00,VWS V14.00,2013-08-19 15:40:00,
2013-08-19 11:45:00,69.3,63.9,30.11,NNW,338,0.0,8.0,83,0.00,,---,0.00,VWS V14.00,2013-08-19 15:45:00,
2013-08-19 11:50:00,69.8,64.1,30.10,NNW,344,0.0,8.0,82,0.00,,---,0.00,VWS V14.00,2013-08-19 15:50:00,
2013-08-19 11:55:00,70.3,64.6,30.10,NNW,344,5.0,8.0,82,0.00,,---,0.00,VWS V14.00,2013-08-19 15:55:00,
2013-08-19 12:00:00,70.7,63.5,30.10,NNW,344,2.0,8.0,78,0.00,,---,0.00,VWS V14.00,2013-08-19 16:00:00,
2013-08-19 12:05:00,71.1,63.5,30.10,NNW,346,0.0,5.0,77,0.00,,---,0.00,VWS V14.00,2013-08-19 16:05:00,
2013-08-19 12:10:00,71.5,63.5,30.09,NNW,345,0.0,6.0,76,0.00,,---,0.00,VWS V14.00,2013-08-19 16:10:00,
2013-08-19 12:15:00,71.7,63.4,30.09,NNW,345,0.0,6.0,75,0.00,,---,0.00,VWS V14.00,2013-08-19 16:15:00,
2013-08-19 12:20:00,71.9,63.2,30.09,North,350,0.0,7.0,74,0.00,,---,0.00,VWS V14.00,2013-08-19 16:20:00,
2013-08-19 12:25:00,72.3,63.9,30.09,NNW,343,2.0,7.0,75,0.00,,---,0.00,VWS V14.00,2013-08-19 16:25:00,
2013-08-19 12:30:00,72.5,63.0,30.09,NNW,343,0.0,7.0,72,0.00,,---,0.00,VWS V14.00,2013-08-19 16:30:00,
2013-08-19 12:35:00,72.3,62.8,30.09,NNW,343,0.0,4.0,72,0.00,,---,0.00,VWS V14.00,2013-08-19 16:35:00,
2013-08-19 12:40:00,72.6,63.8,30.09,NNW,343,5.0,5.0,74,0.00,,---,0.00,VWS V14.00,2013-08-19 16:40:00,
2013-08-19 12:45:00,73.0,63.5,30.09,NNW,338,4.0,7.0,72,0.00,,---,0.00,VWS V14.00,2013-08-19 16:45:00,
2013-08-19 12:50:00,72.9,63.8,30.09,NNW,346,5.0,7.0,73,0.00,,---,0.00,VWS V14.00,2013-08-19 16:50:00,
2013-08-19 12:55:00,73.0,63.5,30.09,NNW,346,0.0,7.0,72,0.00,,---,0.00,VWS V14.00,2013-08-19 16:55:00,
2013-08-19 13:00:00,73.2,63.6,30.08,NNE,21,1.0,9.0,72,0.00,,---,0.00,VWS V14.00,2013-08-19 17:00:00,
2013-08-19 13:05:00,73.4,63.0,30.08,NNW,327,2.0,8.0,70,0.00,,---,0.00,VWS V14.00,2013-08-19 17:05:00,
2013-08-19 13:10:00,73.8,63.4,30.08,NNW,327,0.0,8.0,70,0.00,,---,0.00,VWS V14.00,2013-08-19 17:10:00,
2013-08-19 13:15:00,74.4,63.6,30.08,NNE,14,4.0,9.0,69,0.00,,---,0.00,VWS V14.00,2013-08-19 17:15:00,
2013-08-19 13:20:00,74.4,63.6,30.08,North,10,5.0,9.0,69,0.00,,---,0.00,VWS V14.00,2013-08-19 17:20:00,
2013-08-19 13:25:00,74.3,63.9,30.08,North,355,7.0,9.0,70,0.00,,---,0.00,VWS V14.00,2013-08-19 17:25:00,
2013-08-19 13:30:00,74.1,63.7,30.09,NNW,346,4.0,9.0,70,0.00,,---,0.00,VWS V14.00,2013-08-19 17:30:00,
2013-08-19 13:35:00,74.0,63.6,30.09,NNW,346,0.0,5.0,70,0.00,,---,0.00,VWS V14.00,2013-08-19 17:35:00,
2013-08-19 13:40:00,74.5,64.5,30.09,NNW,346,4.0,5.0,71,0.00,,---,0.00,VWS V14.00,2013-08-19 17:40:00,
2013-08-19 13:45:00,75.0,63.7,30.09,North,5,3.0,10.0,68,0.00,,---,0.00,VWS V14.00,2013-08-19 17:45:00,
2013-08-19 13:50:00,75.1,63.4,30.08,North,355,0.0,10.0,67,0.00,,---,0.00,VWS V14.00,2013-08-19 17:50:00,
2013-08-19 13:55:00,75.3,64.0,30.08,North,350,5.0,10.0,68,0.00,,---,0.00,VWS V14.00,2013-08-19 17:55:00,
2013-08-19 14:00:00,75.5,62.9,30.08,NNW,338,2.0,10.0,65,0.00,,---,0.00,VWS V14.00,2013-08-19 18:00:00,
2013-08-19 14:05:00,75.8,63.2,30.08,NNW,338,0.0,1.0,65,0.00,,---,0.00,VWS V14.00,2013-08-19 18:05:00,
2013-08-19 14:10:00,76.3,62.8,30.08,North,355,1.0,8.0,63,0.00,,---,0.00,VWS V14.00,2013-08-19 18:10:00,
2013-08-19 14:15:00,76.2,63.1,30.08,NNE,24,6.0,10.0,64,0.00,,---,0.00,VWS V14.00,2013-08-19 18:15:00,
2013-08-19 14:20:00,75.8,62.3,30.08,North,5,4.0,10.0,63,0.00,,---,0.00,VWS V14.00,2013-08-19 18:20:00,
2013-08-19 14:25:00,75.5,61.6,30.07,NNE,15,6.0,10.0,62,0.00,,---,0.00,VWS V14.00,2013-08-19 18:25:00,
2013-08-19 14:30:00,75.5,62.5,30.07,North,5,9.0,10.0,64,0.00,,---,0.00,VWS V14.00,2013-08-19 18:30:00,
2013-08-19 14:35:00,75.4,61.0,30.08,North,9,5.0,9.0,61,0.00,,---,0.00,VWS V14.00,2013-08-19 18:35:00,
2013-08-19 14:40:00,75.1,61.7,30.08,North,355,6.0,9.0,63,0.00,,---,0.00,VWS V14.00,2013-08-19 18:40:00,
2013-08-19 14:45:00,74.9,61.9,30.08,North,360,4.0,9.0,64,0.00,,---,0.00,VWS V14.00,2013-08-19 18:45:00,
2013-08-19 14:50:00,75.1,63.4,30.08,North,360,2.0,9.0,67,0.00,,---,0.00,VWS V14.00,2013-08-19 18:50:00,
2013-08-19 14:55:00,75.7,61.8,30.07,NNW,330,1.0,9.0,62,0.00,,---,0.00,VWS V14.00,2013-08-19 18:55:00,
2013-08-19 15:00:00,76.0,62.0,30.07,NW,323,6.0,10.0,62,0.00,,---,0.00,VWS V14.00,2013-08-19 19:00:00,
2013-08-19 15:05:00,76.2,61.8,30.08,North,355,8.0,8.0,61,0.00,,---,0.00,VWS V14.00,2013-08-19 19:05:00,
2013-08-19 15:10:00,76.5,62.5,30.07,North,350,0.0,8.0,62,0.00,,---,0.00,VWS V14.00,2013-08-19 19:10:00,
2013-08-19 15:15:00,76.7,63.6,30.07,North,350,0.0,8.0,64,0.00,,---,0.00,VWS V14.00,2013-08-19 19:15:00,
2013-08-19 15:20:00,76.9,62.0,30.07,North,350,0.0,8.0,60,0.00,,---,0.00,VWS V14.00,2013-08-19 19:20:00,
2013-08-19 15:25:00,77.1,63.1,30.07,North,11,3.0,9.0,62,0.00,,---,0.00,VWS V14.00,2013-08-19 19:25:00,
2013-08-19 15:30:00,77.1,62.2,30.07,NNW,339,5.0,9.0,60,0.00,,---,0.00,VWS V14.00,2013-08-19 19:30:00,
2013-08-19 15:35:00,77.1,62.6,30.07,North,349,1.0,4.0,61,0.00,,---,0.00,VWS V14.00,2013-08-19 19:35:00,
2013-08-19 15:40:00,76.8,61.9,30.07,NNW,347,0.0,5.0,60,0.00,,---,0.00,VWS V14.00,2013-08-19 19:40:00,
2013-08-19 15:45:00,76.8,62.3,30.07,North,360,6.0,8.0,61,0.00,,---,0.00,VWS V14.00,2013-08-19 19:45:00,
2013-08-19 15:50:00,77.0,62.1,30.07,NNW,333,1.0,9.0,60,0.00,,---,0.00,VWS V14.00,2013-08-19 19:50:00,
2013-08-19 15:55:00,77.4,62.9,30.06,NNW,331,1.0,9.0,61,0.00,,---,0.00,VWS V14.00,2013-08-19 19:55:00,
2013-08-19 16:00:00,77.7,64.1,30.06,WNW,298,0.0,9.0,63,0.00,,---,0.00,VWS V14.00,2013-08-19 20:00:00,
2013-08-19 16:05:00,78.0,62.0,30.06,WNW,298,4.0,5.0,58,0.00,,---,0.00,VWS V14.00,2013-08-19 20:05:00,
2013-08-19 16:10:00,78.3,64.7,30.06,WNW,298,0.0,5.0,63,0.00,,---,0.00,VWS V14.00,2013-08-19 20:10:00,
2013-08-19 16:15:00,78.4,62.9,30.06,WNW,298,0.0,5.0,59,0.00,,---,0.00,VWS V14.00,2013-08-19 20:15:00,
2013-08-19 16:20:00,78.0,64.4,30.06,WNW,298,2.0,5.0,63,0.00,,---,0.00,VWS V14.00,2013-08-19 20:20:00,
2013-08-19 16:25:00,77.7,62.2,30.06,NW,309,0.0,7.0,59,0.00,,---,0.00,VWS V14.00,2013-08-19 20:25:00,
2013-08-19 16:30:00,77.8,63.3,30.06,NW,309,6.0,8.0,61,0.00,,---,0.00,VWS V14.00,2013-08-19 20:30:00,
2013-08-19 16:35:00,78.0,64.4,30.06,NW,312,0.0,4.0,63,0.00,,---,0.00,VWS V14.00,2013-08-19 20:35:00,
2013-08-19 16:40:00,78.0,63.5,30.06,WNW,295,2.0,7.0,61,0.00,,---,0.00,VWS V14.00,2013-08-19 20:40:00,
2013-08-19 16:45:00,77.5,63.9,30.06,WNW,295,0.0,7.0,63,0.00,,---,0.00,VWS V14.00,2013-08-19 20:45:00,
2013-08-19 16:50:00,77.5,64.4,30.06,WNW,295,0.0,7.0,64,0.00,,---,0.00,VWS V14.00,2013-08-19 20:50:00,
2013-08-19 16:55:00,77.8,64.7,30.06,WNW,295,2.0,7.0,64,0.00,,---,0.00,VWS V14.00,2013-08-19 20:55:00,
2013-08-19 17:00:00,78.3,64.2,30.06,WNW,295,2.0,7.0,62,0.00,,---,0.00,VWS V14.00,2013-08-19 21:00:00,
2013-08-19 17:05:00,78.4,63.8,30.06,NW,325,4.0,8.0,61,0.00,,---,0.00,VWS V14.00,2013-08-19 21:05:00,
2013-08-19 17:10:00,77.8,63.8,30.05,NW,325,2.0,8.0,62,0.00,,---,0.00,VWS V14.00,2013-08-19 21:10:00,
2013-08-19 17:15:00,77.2,64.1,30.05,NW,325,0.0,8.0,64,0.00,,---,0.00,VWS V14.00,2013-08-19 21:15:00,
2013-08-19 17:20:00,77.0,63.0,30.05,NW,325,5.0,8.0,62,0.00,,---,0.00,VWS V14.00,2013-08-19 21:20:00,
2013-08-19 17:25:00,77.1,64.4,30.05,NW,325,0.0,8.0,65,0.00,,---,0.00,VWS V14.00,2013-08-19 21:25:00,
2013-08-19 17:30:00,77.4,64.3,30.05,NW,325,1.0,8.0,64,0.00,,---,0.00,VWS V14.00,2013-08-19 21:30:00,
2013-08-19 17:35:00,77.5,63.0,30.05,NW,325,0.0,6.0,61,0.00,,---,0.00,VWS V14.00,2013-08-19 21:35:00,
2013-08-19 17:40:00,77.6,63.6,30.05,NW,325,0.0,6.0,62,0.00,,---,0.00,VWS V14.00,2013-08-19 21:40:00,
2013-08-19 17:45:00,77.6,63.6,30.05,NW,325,0.0,6.0,62,0.00,,---,0.00,VWS V14.00,2013-08-19 21:45:00,
2013-08-19 17:50:00,77.5,62.1,30.05,NW,325,0.0,7.0,59,0.00,,---,0.00,VWS V14.00,2013-08-19 21:50:00,
2013-08-19 17:55:00,77.5,62.1,30.05,NW,325,2.0,7.0,59,0.00,,---,0.00,VWS V14.00,2013-08-19 21:55:00,
2013-08-19 18:00:00,77.4,63.4,30.06,NW,326,6.0,7.0,62,0.00,,---,0.00,VWS V14.00,2013-08-19 22:00:00,
2013-08-19 18:05:00,77.2,62.2,30.05,NNW,335,5.0,7.0,60,0.00,,---,0.00,VWS V14.00,2013-08-19 22:05:00,
2013-08-19 18:10:00,77.1,61.7,30.06,NNW,335,0.0,7.0,59,0.00,,---,0.00,VWS V14.00,2013-08-19 22:10:00,
2013-08-19 18:15:00,77.3,63.3,30.05,NNW,335,4.0,7.0,62,0.00,,---,0.00,VWS V14.00,2013-08-19 22:15:00,
2013-08-19 18:20:00,77.3,62.3,30.05,NNW,335,0.0,7.0,60,0.00,,---,0.00,VWS V14.00,2013-08-19 22:20:00,
2013-08-19 18:25:00,77.1,62.6,30.05,NNW,335,2.0,7.0,61,0.00,,---,0.00,VWS V14.00,2013-08-19 22:25:00,
2013-08-19 18:30:00,76.9,62.4,30.05,NNW,335,4.0,7.0,61,0.00,,---,0.00,VWS V14.00,2013-08-19 22:30:00,
2013-08-19 18:35:00,76.8,63.3,30.05,NNW,335,1.0,2.0,63,0.00,,---,0.00,VWS V14.00,2013-08-19 22:35:00,
2013-08-19 18:40:00,76.8,62.8,30.05,NNW,335,0.0,5.0,62,0.00,,---,0.00,VWS V14.00,2013-08-19 22:40:00,
2013-08-19 18:45:00,76.9,63.4,30.05,NNW,335,0.0,5.0,63,0.00,,---,0.00,VWS V14.00,2013-08-19 22:45:00,
2013-08-19 18:50:00,76.9,62.9,30.05,NNW,335,2.0,5.0,62,0.00,,---,0.00,VWS V14.00,2013-08-19 22:50:00,
2013-08-19 18:55:00,76.7,62.2,30.05,NNW,335,2.0,5.0,61,0.00,,---,0.00,VWS V14.00,2013-08-19 22:55:00,
2013-08-19 19:00:00,76.4,62.9,30.05,NNW,335,4.0,6.0,63,0.00,,---,0.00,VWS V14.00,2013-08-19 23:00:00,
2013-08-19 19:05:00,76.1,63.0,30.05,NNW,335,0.0,5.0,64,0.00,,---,0.00,VWS V14.00,2013-08-19 23:05:00,
2013-08-19 19:10:00,75.8,63.2,30.05,NNW,335,0.0,5.0,65,0.00,,---,0.00,VWS V14.00,2013-08-19 23:10:00,
2013-08-19 19:15:00,75.7,63.5,30.05,NNW,335,0.0,5.0,66,0.00,,---,0.00,VWS V14.00,2013-08-19 23:15:00,
2013-08-19 19:20:00,75.5,63.8,30.05,NNW,335,0.0,5.0,67,0.00,,---,0.00,VWS V14.00,2013-08-19 23:20:00,
2013-08-19 19:25:00,75.2,63.9,30.05,NNW,335,0.0,5.0,68,0.00,,---,0.00,VWS V14.00,2013-08-19 23:25:00,
2013-08-19 19:30:00,74.8,64.0,30.05,NNW,335,0.0,5.0,69,0.00,,---,0.00,VWS V14.00,2013-08-19 23:30:00,
2013-08-19 19:35:00,74.4,64.0,30.05,NNW,335,0.0,0.0,70,0.00,,---,0.00,VWS V14.00,2013-08-19 23:35:00,
2013-08-19 19:40:00,73.9,63.9,30.05,NNW,335,0.0,0.0,71,0.00,,---,0.00,VWS V14.00,2013-08-19 23:40:00,
2013-08-19 19:45:00,73.5,63.5,30.05,NNW,335,0.0,0.0,71,0.00,,---,0.00,VWS V14.00,2013-08-19 23:45:00,
2013-08-19 19:50:00,73.1,63.2,30.05,NNW,335,0.0,0.0,71,0.00,,---,0.00,VWS V14.00,2013-08-19 23:50:00,
2013-08-19 19:55:00,72.8,62.9,30.05,NNW,335,0.0,0.0,71,0.00,,---,0.00,VWS V14.00,2013-08-19 23:55:00,
2013-08-19 20:00:00,72.6,63.5,30.04,NNW,335,0.0,0.0,73,0.00,,---,0.00,VWS V14.00,2013-08-20 00:00:00,
2013-08-19 20:05:00,72.4,63.3,30.04,NNW,335,0.0,0.0,73,0.00,,---,0.00,VWS V14.00,2013-08-20 00:05:00,
2013-08-19 20:10:00,72.1,63.0,30.04,NNW,335,0.0,0.0,73,0.00,,---,0.00,VWS V14.00,2013-08-20 00:10:00,
2013-08-19 20:15:00,71.7,63.0,30.05,NNW,335,0.0,0.0,74,0.00,,---,0.00,VWS V14.00,2013-08-20 00:15:00,
2013-08-19 20:20:00,71.3,63.0,30.05,NNW,335,0.0,0.0,75,0.00,,---,0.00,VWS V14.00,2013-08-20 00:20:00,
2013-08-19 20:25:00,70.8,62.9,30.05,NNW,335,0.0,0.0,76,0.00,,---,0.00,VWS V14.00,2013-08-20 00:25:00,
2013-08-19 20:30:00,70.2,63.4,30.05,NNW,335,0.0,0.0,79,0.00,,---,0.00,VWS V14.00,2013-08-20 00:30:00,
2013-08-19 20:35:00,69.7,62.9,30.05,NNW,335,0.0,0.0,79,0.00,,---,0.00,VWS V14.00,2013-08-20 00:35:00,
2013-08-19 20:40:00,69.2,62.4,30.05,NNW,335,0.0,0.0,79,0.00,,---,0.00,VWS V14.00,2013-08-20 00:40:00,
2013-08-19 20:45:00,68.9,62.1,30.05,NNW,335,0.0,0.0,79,0.00,,---,0.00,VWS V14.00,2013-08-20 00:45:00,
2013-08-19 20:50:00,68.6,62.2,30.05,NNW,335,0.0,0.0,80,0.00,,---,0.00,VWS V14.00,2013-08-20 00:50:00,
2013-08-19 20:55:00,68.3,62.2,30.05,NNW,335,0.0,0.0,81,0.00,,---,0.00,VWS V14.00,2013-08-20 00:55:00,
2013-08-19 21:00:00,67.9,62.5,30.06,NNW,335,0.0,0.0,83,0.00,,---,0.00,VWS V14.00,2013-08-20 01:00:00,
2013-08-19 21:05:00,67.7,62.7,30.06,NNW,335,0.0,0.0,84,0.00,,---,0.00,VWS V14.00,2013-08-20 01:05:00,
2013-08-19 21:10:00,67.5,62.5,30.05,NNW,335,0.0,0.0,84,0.00,,---,0.00,VWS V14.00,2013-08-20 01:10:00,
2013-08-19 21:15:00,67.3,62.6,30.05,NNW,335,0.0,0.0,85,0.00,,---,0.00,VWS V14.00,2013-08-20 01:15:00,
2013-08-19 21:20:00,67.0,62.7,30.06,NNW,335,0.0,0.0,86,0.00,,---,0.00,VWS V14.00,2013-08-20 01:20:00,
2013-08-19 21:25:00,66.8,63.1,30.06,NNW,335,0.0,0.0,88,0.00,,---,0.00,VWS V14.00,2013-08-20 01:25:00,
2013-08-19 21:30:00,66.5,63.2,30.07,NNW,335,0.0,0.0,89,0.00,,---,0.00,VWS V14.00,2013-08-20 01:30:00,
2013-08-19 21:35:00,66.3,62.6,30.06,NNW,335,0.0,0.0,88,0.00,,---,0.00,VWS V14.00,2013-08-20 01:35:00,
2013-08-19 21:40:00,66.0,62.3,30.07,NNW,335,0.0,0.0,88,0.00,,---,0.00,VWS V14.00,2013-08-20 01:40:00,
2013-08-19 21:45:00,65.8,62.2,30.07,NNW,335,0.0,0.0,88,0.00,,---,0.00,VWS V14.00,2013-08-20 01:45:00,
2013-08-19 21:50:00,65.7,62.4,30.07,NNW,335,0.0,0.0,89,0.00,,---,0.00,VWS V14.00,2013-08-20 01:50:00,
2013-08-19 21:55:00,65.6,62.3,30.07,NNW,335,0.0,0.0,89,0.00,,---,0.00,VWS V14.00,2013-08-20 01:55:00,
2013-08-19 22:00:00,65.4,62.1,30.07,NNW,335,0.0,0.0,89,0.00,,---,0.00,VWS V14.00,2013-08-20 02:00:00,
2013-08-19 22:05:00,65.2,61.6,30.07,NNW,335,0.0,0.0,88,0.00,,---,0.00,VWS V14.00,2013-08-20 02:05:00,
2013-08-19 22:10:00,65.0,60.7,30.07,NNW,335,0.0,0.0,86,0.00,,---,0.00,VWS V14.00,2013-08-20 02:10:00,
2013-08-19 22:15:00,65.2,60.6,30.07,NNW,335,0.0,0.0,85,0.00,,---,0.00,VWS V14.00,2013-08-20 02:15:00,
2013-08-19 22:20:00,65.6,60.3,30.07,NNW,335,0.0,0.0,83,0.00,,---,0.00,VWS V14.00,2013-08-20 02:20:00,
2013-08-19 22:25:00,65.9,60.6,30.07,NNW,335,0.0,0.0,83,0.00,,---,0.00,VWS V14.00,2013-08-20 02:25:00,
2013-08-19 22:30:00,66.1,60.8,30.08,NNW,335,0.0,0.0,83,0.00,,---,0.00,VWS V14.00,2013-08-20 02:30:00,
2013-08-19 22:35:00,66.2,60.9,30.07,NNW,335,0.0,0.0,83,0.00,,---,0.00,VWS V14.00,2013-08-20 02:35:00,
2013-08-19 22:40:00,66.1,60.5,30.07,NNW,335,0.0,0.0,82,0.00,,---,0.00,VWS V14.00,2013-08-20 02:40:00,
2013-08-19 22:45:00,65.9,60.9,30.07,NNW,335,0.0,0.0,84,0.00,,---,0.00,VWS V14.00,2013-08-20 02:45:00,
2013-08-19 22:50:00,65.5,60.9,30.07,NNW,335,0.0,0.0,85,0.00,,---,0.00,VWS V14.00,2013-08-20 02:50:00,
2013-08-19 22:55:00,65.1,60.5,30.07,NNW,335,0.0,0.0,85,0.00,,---,0.00,VWS V14.00,2013-08-20 02:55:00,
2013-08-19 23:00:00,64.8,60.5,30.07,NNW,335,0.0,0.0,86,0.00,,---,0.00,VWS V14.00,2013-08-20 03:00:00,
2013-08-19 23:05:00,64.6,60.7,30.08,NNW,335,0.0,0.0,87,0.00,,---,0.00,VWS V14.00,2013-08-20 03:05:00,
2013-08-19 23:10:00,64.6,60.7,30.08,NNW,335,0.0,0.0,87,0.00,,---,0.00,VWS V14.00,2013-08-20 03:10:00,
2013-08-19 23:15:00,64.9,60.9,30.07,NNW,335,0.0,0.0,87,0.00,,---,0.00,VWS V14.00,2013-08-20 03:15:00,
2013-08-19 23:20:00,65.2,61.2,30.08,NNW,335,0.0,0.0,87,0.00,,---,0.00,VWS V14.00,2013-08-20 03:20:00,
2013-08-19 23:25:00,65.5,61.5,30.08,NNW,335,0.0,0.0,87,0.00,,---,0.00,VWS V14.00,2013-08-20 03:25:00,
2013-08-19 23:30:00,65.8,61.8,30.08,NNW,335,0.0,0.0,87,0.00,,---,0.00,VWS V14.00,2013-08-20 03:30:00,
2013-08-19 23:35:00,65.9,61.9,30.08,NNW,335,0.0,0.0,87,0.00,,---,0.00,VWS V14.00,2013-08-20 03:35:00,
2013-08-19 23:40:00,65.9,61.6,30.08,NNW,335,0.0,0.0,86,0.00,,---,0.00,VWS V14.00,2013-08-20 03:40:00,
2013-08-19 23:45:00,65.8,61.2,30.08,NNW,335,0.0,0.0,85,0.00,,---,0.00,VWS V14.00,2013-08-20 03:45:00,
2013-08-19 23:50:00,65.7,61.1,30.08,NNW,335,0.0,0.0,85,0.00,,---,0.00,VWS V14.00,2013-08-20 03:50:00,
2013-08-19 23:55:00,65.6,61.0,30.08,NNW,335,0.0,0.0,85,0.00,,---,0.00,VWS V14.00,2013-08-20 03:55:00,